TimeCST,TemperatureF,Dew PointF,Humidity,Sea Level PressureIn,VisibilityMPH,Wind Direction,Wind SpeedMPH,Gust SpeedMPH,PrecipitationIn,Events,Conditions,WindDirDegrees,DateUTC
12:53 AM,25.0,23.0,92,30.29,4.0,Calm,Calm,-,N/A,,Clear,0,2013-01-03 06:53:00
2:53 AM,24.1,21.9,91,30.32,5.0,Calm,Calm,-,N/A,,Clear,0,2013-01-03 08:53:00
3:53 AM,23.0,19.9,88,30.32,5.0,Calm,Calm,-,N/A,,Clear,0,2013-01-03 09:53:00
4:53 AM,23.0,19.9,88,30.32,5.0,Calm,Calm,-,N/A,,Clear,0,2013-01-03 10:53:00
5:53 AM,21.9,19.0,89,30.35,5.0,Calm,Calm,-,N/A,,Clear,0,2013-01-03 11:53:00
6:53 AM,21.9,18.0,85,30.37,6.0,Calm,Calm,-,N/A,,Clear,0,2013-01-03 12:53:00
7:53 AM,23.0,21.0,92,30.39,4.0,Calm,Calm,-,N/A,,Clear,0,2013-01-03 13:53:00
8:53 AM,30.0,27.0,88,30.42,5.0,Calm,Calm,-,N/A,,Clear,0,2013-01-03 14:53:00
9:53 AM,33.1,28.9,85,30.45,6.0,South,3.5,-,N/A,,Clear,190,2013-01-03 15:53:00
10:53 AM,37.9,27.0,65,30.45,10.0,WNW,5.8,-,N/A,,Clear,300,2013-01-03 16:53:00
11:53 AM,41.0,28.0,60,30.43,10.0,Variable,4.6,-,N/A,,Clear,0,2013-01-03 17:53:00
12:53 PM,43.0,28.0,56,30.39,10.0,Variable,3.5,-,N/A,,Clear,0,2013-01-03 18:53:00
1:53 PM,44.1,28.0,53,30.37,10.0,NNW,5.8,-,N/A,,Clear,330,2013-01-03 19:53:00
2:53 PM,45.0,28.0,52,30.37,10.0,WNW,5.8,-,N/A,,Clear,290,2013-01-03 20:53:00
3:53 PM,45.0,28.0,52,30.39,10.0,West,3.5,-,N/A,,Clear,270,2013-01-03 21:53:00
4:53 PM,43.0,28.0,56,30.39,10.0,West,3.5,-,N/A,,Clear,280,2013-01-03 22:53:00
5:53 PM,32.0,28.0,85,30.41,10.0,Calm,Calm,-,N/A,,Clear,0,2013-01-03 23:53:00
6:53 PM,30.0,26.1,85,30.42,10.0,Calm,Calm,-,N/A,,Clear,0,2013-01-04 00:53:00
7:53 PM,28.9,26.1,89,30.42,10.0,Calm,Calm,-,N/A,,Clear,0,2013-01-04 01:53:00
8:53 PM,28.9,26.1,89,30.43,7.0,Calm,Calm,-,N/A,,Clear,0,2013-01-04 02:53:00
9:53 PM,27.0,25.0,92,30.43,6.0,Calm,Calm,-,N/A,,Clear,0,2013-01-04 03:53:00
10:53 PM,27.0,25.0,92,30.43,6.0,Calm,Calm,-,N/A,,Clear,0,2013-01-04 04:53:00
11:53 PM,26.1,24.1,92,30.43,5.0,Calm,Calm,-,N/A,,Clear,0,2013-01-04 05:53:00